Wind_Speed
8 9 10 11 12 13 14 15 16 17 17 18 18 18 18 19 20 19 19 20 20 19 19 20 21 20 19 18 19 19 20 21 21 21 22 22 22 23 24 25 27 27 27 28
8 9 10 10 11 13 14 15 15 17 17 18 18 18 18 19 19 19 19 19 20 20 20 20 20 19 18 19 20 20 20 20 19 20 21 22 22 22 23 24 26 27 28 28
7 8 9 10 11 12 13 13 15 16 17 18 18 18 19 19 19 19 20 20 19 19 20 20 20 19 19 19 19 20 20 20 20 19 20 21 22 23 24 25 26 26 27 27
6 8 9 10 11 13 13 14 15 16 17 18 18 19 18 19 20 20 19 19 18 19 20 19 19 19 18 18 18 19 20 20 19 19 20 21 22 23 24 25 26 26 26 27
5 6 8 10 12 13 14 14 15 16 16 17 18 19 17 18 19 20 19 18 18 18 18 17 17 17 18 18 18 19 19 19 20 19 20 21 22 23 24 24 25 25 26 26
6 7 9 10 11 13 14 14 15 16 17 16 17 19 18 18 18 18 18 18 18 18 18 18 18 18 18 19 19 20 20 20 19 19 20 21 23 24 24 24 25 25 26 26
7 8 10 11 12 13 14 15 16 16 17 17 17 18 18 18 17 17 17 17 17 18 18 18 17 18 18 20 20 20 19 19 19 20 21 22 23 23 23 24 25 25 26 26
8 10 11 12 13 14 15 16 17 17 18 17 16 17 17 17 16 17 17 18 17 17 17 17 17 18 18 19 19 19 18 19 19 20 21 23 23 23 24 25 25 25 25 25
10 10 12 13 14 15 15 16 18 19 18 18 17 16 16 17 17 16 17 17 17 17 18 18 18 19 18 18 18 18 17 19 20 21 22 22 23 24 24 25 24 25 25 25
12 12 12 14 14 15 17 17 18 20 21 20 18 17 17 17 17 17 17 17 17 17 17 16 17 18 18 17 17 18 18 18 20 21 22 22 23 24 24 24 24 24 24 25
14 14 14 15 15 16 16 18 19 20 21 22 21 18 18 18 18 19 18 17 16 16 17 17 18 18 18 17 18 18 18 19 20 21 21 22 23 23 24 24 24 24 24 24
15 16 15 16 16 17 17 18 20 20 20 20 21 18 18 18 18 19 18 18 17 17 17 17 17 17 17 17 18 18 18 19 20 21 22 23 24 23 23 24 24 24 24 23
17 18 17 17 17 18 18 19 20 20 21 21 21 20 18 18 18 19 19 19 18 17 17 17 17 17 17 17 17 18 19 19 20 21 22 22 23 22 22 23 23 23 22 21
19 18 19 19 18 19 19 19 20 21 23 22 22 21 19 19 19 19 19 19 18 17 18 17 16 17 16 16 16 18 19 20 21 21 21 21 21 21 21 21 21 21 20 20
20 20 19 19 19 20 20 20 20 22 23 24 22 21 21 20 20 19 19 18 18 18 17 17 17 16 16 16 17 17 18 19 19 19 19 20 20 20 20 20 20 20 19 19
20 21 21 20 20 21 21 21 22 23 24 24 23 22 21 21 20 19 19 19 19 19 18 18 18 17 17 16 16 17 17 19 19 18 18 18 19 19 18 18 18 18 17 17
21 21 22 22 21 22 22 22 23 23 23 23 22 22 21 21 20 18 19 19 19 19 19 18 17 17 17 16 16 17 17 18 18 18 17 17 18 17 17 18 17 16 16 17
23 22 23 23 23 23 22 22 23 23 22 23 23 22 21 21 20 20 19 18 18 19 19 18 17 16 15 15 15 16 16 16 16 17 17 17 17 16 16 16 16 15 16 16
24 24 24 25 25 24 23 23 23 24 23 23 22 22 21 20 20 19 18 18 18 17 16 15 15 15 14 14 14 15 15 15 15 16 15 15 15 15 14 15 15 15 16 16
25 24 25 25 26 25 25 24 23 24 23 23 23 22 22 21 20 19 19 19 18 17 15 14 14 13 13 13 13 13 14 14 15 15 14 14 14 14 14 14 14 15 16 16
26 26 26 26 26 25 25 25 23 23 23 22 22 21 21 20 20 20 19 18 17 16 14 13 13 12 12 12 12 12 12 13 13 13 13 13 13 13 14 13 14 15 15 16
28 28 27 27 26 25 24 24 23 23 22 20 19 19 19 19 20 20 18 17 16 15 12 11 11 11 11 11 11 11 11 11 12 12 12 12 13 13 13 13 13 14 15 16
27 27 28 27 26 23 23 23 22 22 22 20 19 18 18 18 18 19 18 16 14 12 10 10 10 10 9 9 9 9 10 10 11 11 11 12 12 12 12 12 13 14 16 16
26 26 26 25 23 22 22 22 22 22 21 21 20 18 17 17 16 16 15 13 11 9 9 9 9 8 8 7 8 8 9 9 10 10 11 11 11 11 12 13 14 14 15 17
25 25 24 24 23 23 22 22 22 22 21 20 19 18 16 16 14 13 12 12 11 9 8 8 7 7 7 6 7 8 8 8 8 9 10 10 10 11 12 13 13 14 16 18
24 24 25 23 22 22 21 20 19 19 18 18 17 15 15 14 12 11 10 10 10 9 7 7 6 6 6 6 7 7 7 7 8 9 9 9 10 11 12 13 14 15 16 18
Wind_Direction
207 215 224 229 231 233 240 245 251 256 261 265 269 272 276 280 283 286 285 281 279 278 277 280 283 282 285 290 290 286 286 288 291 291 291 293 294 293 295 295 294 293 293 293
218 222 230 236 238 239 244 249 257 263 265 268 270 274 278 281 283 286 285 284 281 279 277 284 284 282 286 289 286 285 286 288 289 290 292 294 297 298 300 299 298 297 295 294
229 234 239 241 242 244 249 256 261 266 270 272 275 277 279 284 283 287 285 283 281 282 286 285 287 288 287 286 285 284 285 285 286 289 294 298 299 301 301 301 302 301 299 297
238 245 249 248 247 250 254 261 265 267 271 275 278 281 280 282 284 286 287 283 281 283 286 288 288 287 286 285 283 283 284 286 287 293 298 300 300 302 302 304 305 304 302 301
244 256 258 258 258 262 263 265 272 277 279 279 280 284 285 285 287 289 289 283 282 284 285 288 290 286 286 285 283 285 288 290 292 295 298 299 300 301 303 305 305 306 307 307
261 265 269 272 271 274 272 270 276 281 284 286 288 289 293 293 292 293 293 289 287 286 286 289 289 287 286 287 288 289 290 291 294 297 300 302 301 302 305 308 308 308 309 308
277 271 275 278 277 278 280 276 277 281 286 291 294 293 296 298 297 295 294 295 296 293 291 290 289 287 288 289 292 293 288 288 292 298 301 302 303 304 306 308 307 307 308 308
288 282 280 279 280 281 282 284 286 289 293 295 294 298 301 302 302 299 294 295 297 296 292 289 289 289 290 293 294 293 290 289 292 298 302 304 305 306 307 307 307 308 309 309
291 286 285 284 285 283 283 284 288 290 294 297 299 301 300 303 302 299 294 294 296 296 293 289 287 290 289 291 294 291 292 293 295 299 302 304 305 307 308 309 307 310 310 310
289 287 288 288 285 283 286 287 289 292 296 298 302 303 303 303 302 298 296 295 295 296 296 291 291 293 294 293 296 295 294 296 298 301 303 304 304 306 309 311 311 311 312 311
292 290 289 288 286 285 284 286 288 291 294 297 301 304 304 302 302 301 298 296 296 297 296 295 296 296 295 295 297 298 298 299 301 303 305 304 304 306 308 310 312 312 313 312
294 293 289 285 286 287 287 287 287 288 290 293 297 301 301 301 300 300 299 300 300 298 296 296 295 294 296 297 298 298 298 300 304 306 306 306 304 304 307 310 311 311 312 312
295 293 289 285 284 286 285 285 286 286 287 291 294 298 298 296 297 296 296 297 300 298 296 296 295 296 298 297 297 298 300 303 305 306 307 308 306 306 309 311 311 311 312 314
295 292 290 289 289 287 286 286 285 286 287 288 291 293 292 290 291 292 293 294 297 297 296 295 296 295 296 296 297 301 303 305 307 309 310 312 311 311 310 311 312 312 314 316
295 293 291 289 289 289 290 289 287 286 287 287 290 291 292 290 288 288 290 291 294 295 296 294 294 293 295 296 298 303 307 308 311 313 313 314 314 314 313 314 314 315 316 318
294 293 291 290 290 292 293 290 289 288 289 287 288 290 290 288 285 286 286 288 291 293 294 294 292 291 293 296 299 306 308 309 311 313 314 315 317 317 318 320 321 320 320 321
296 295 292 292 291 292 293 293 293 291 290 287 288 288 284 284 283 284 284 286 287 288 290 293 295 291 291 294 299 305 309 310 313 316 316 318 320 321 321 322 323 323 324 324
298 295 293 294 294 295 297 295 292 288 286 286 287 286 282 282 282 282 284 286 287 287 289 292 295 293 291 294 299 304 308 311 314 316 317 319 320 322 323 325 327 327 326 325
295 294 294 295 295 296 296 296 293 288 284 283 283 282 283 282 282 281 281 285 287 286 286 289 291 291 292 297 302 306 309 312 316 318 319 321 323 324 326 327 329 330 329 326
293 293 294 296 295 297 297 295 292 288 284 283 282 282 282 282 281 277 278 281 283 284 285 285 288 290 293 299 305 306 311 315 318 319 321 325 326 327 327 328 328 330 330 328
293 292 292 293 293 295 296 295 291 288 287 284 284 282 281 281 278 277 279 278 280 281 282 283 285 287 294 300 301 304 312 319 321 323 324 326 328 330 331 330 331 332 334 335
294 292 292 292 293 294 292 289 287 286 285 285 285 283 280 278 275 275 276 276 276 275 276 280 287 288 291 296 299 303 313 321 325 327 328 330 331 331 333 334 337 340 340 340
293 292 292 292 293 292 288 285 283 282 283 284 284 284 279 276 274 273 272 271 271 267 267 275 281 285 292 296 298 307 316 324 328 330 331 335 338 337 338 339 342 343 342 341
292 293 293 291 291 286 283 281 281 282 283 282 283 282 279 274 274 272 268 266 262 259 265 268 277 285 292 297 304 313 319 327 332 336 337 341 344 345 343 342 342 344 345 345
292 291 290 289 287 282 279 280 280 281 282 281 280 279 274 273 270 265 265 257 253 252 254 265 275 285 291 295 307 316 321 328 337 341 345 346 346 347 347 347 345 344 344 346
288 286 286 289 287 285 284 283 280 280 281 279 277 272 268 266 262 261 259 251 247 247 252 262 273 280 286 298 308 315 323 331 341 345 348 347 348 349 350 351 351 350 349 350
Height
5839 5841 5842 5844 5845 5847 5848 5849 5849 5850 5850 5851 5851 5851 5851 5851 5850 5849 5849 5848 5847 5847 5846 5845 5843 5843 5842 5841 5840 5838 5836 5834 5832 5831 5829 5827 5825 5823 5821 5818 5816 5813 5810 5808
5840 5840 5842 5843 5844 5845 5846 5847 5847 5848 5848 5848 5848 5848 5848 5847 5846 5845 5844 5843 5842 5842 5841 5840 5838 5837 5837 5836 5835 5833 5830 5829 5828 5826 5824 5822 5820 5818 5815 5813 5810 5807 5804 5801
5839 5841 5841 5842 5843 5843 5844 5845 5845 5845 5845 5844 5845 5845 5844 5843 5843 5842 5840 5838 5837 5837 5836 5835 5834 5833 5832 5830 5829 5828 5826 5825 5823 5821 5819 5817 5815 5813 5810 5807 5804 5801 5798 5795
5839 5840 5840 5841 5842 5842 5843 5843 5842 5842 5842 5842 5842 5841 5841 5840 5838 5837 5835 5834 5833 5832 5831 5831 5830 5828 5827 5826 5824 5823 5821 5820 5818 5816 5815 5813 5810 5808 5805 5802 5798 5795 5791 5788
5839 5839 5839 5840 5840 5840 5840 5840 5840 5839 5839 5838 5838 5837 5838 5835 5834 5833 5831 5829 5828 5828 5827 5826 5825 5824 5823 5821 5819 5818 5816 5815 5813 5811 5809 5807 5805 5802 5799 5796 5793 5789 5786 5782
5838 5838 5838 5838 5838 5838 5838 5838 5837 5836 5836 5836 5835 5834 5833 5831 5829 5828 5827 5825 5824 5823 5822 5821 5820 5819 5819 5817 5815 5814 5812 5810 5809 5806 5804 5802 5800 5797 5794 5790 5787 5784 5781 5777
5838 5838 5837 5837 5836 5836 5836 5835 5835 5833 5832 5832 5831 5830 5830 5828 5826 5824 5823 5822 5820 5819 5818 5817 5816 5815 5814 5812 5810 5808 5806 5805 5804 5802 5799 5797 5794 5791 5788 5785 5782 5779 5775 5771
5836 5836 5835 5834 5834 5833 5832 5832 5832 5830 5829 5828 5827 5826 5826 5824 5822 5820 5819 5817 5816 5815 5814 5812 5811 5810 5809 5807 5806 5804 5802 5801 5799 5797 5795 5792 5789 5786 5783 5780 5777 5773 5770 5766
5833 5834 5833 5832 5830 5830 5829 5828 5828 5827 5825 5824 5824 5823 5823 5820 5819 5817 5815 5814 5812 5811 5810 5808 5806 5805 5804 5803 5801 5800 5798 5797 5795 5792 5790 5787 5784 5781 5778 5774 5771 5768 5765 5761
5830 5830 5830 5829 5828 5827 5826 5825 5824 5823 5821 5820 5820 5819 5819 5817 5815 5813 5811 5810 5808 5807 5805 5803 5802 5801 5800 5798 5797 5795 5794 5792 5790 5787 5785 5782 5779 5776 5773 5769 5766 5763 5759 5756
5827 5827 5827 5825 5824 5823 5823 5822 5820 5819 5817 5816 5815 5817 5815 5813 5811 5809 5807 5805 5804 5802 5800 5799 5798 5797 5795 5794 5793 5791 5789 5787 5785 5782 5780 5777 5774 5771 5768 5765 5761 5758 5754 5750
5824 5823 5822 5822 5821 5819 5819 5818 5816 5815 5814 5812 5811 5814 5811 5809 5806 5804 5803 5801 5799 5798 5796 5795 5794 5792 5791 5789 5788 5786 5784 5782 5780 5777 5775 5771 5769 5766 5763 5759 5756 5752 5749 5745
5820 5819 5818 5818 5819 5817 5814 5813 5812 5811 5809 5808 5807 5810 5806 5804 5802 5800 5799 5797 5795 5794 5792 5791 5789 5788 5786 5785 5783 5782 5780 5777 5775 5772 5769 5766 5763 5760 5757 5754 5751 5747 5743 5740
5815 5814 5814 5813 5812 5811 5810 5809 5808 5807 5805 5803 5803 5803 5802 5799 5798 5796 5794 5793 5791 5790 5788 5786 5785 5784 5782 5781 5779 5777 5775 5773 5770 5768 5765 5761 5758 5755 5752 5749 5746 5742 5739 5736
5811 5810 5809 5808 5807 5805 5805 5804 5803 5801 5800 5798 5798 5797 5796 5794 5793 5792 5790 5788 5787 5785 5784 5782 5781 5779 5778 5776 5775 5773 5771 5769 5766 5763 5760 5757 5753 5750 5747 5744 5741 5738 5735 5732
5806 5805 5804 5804 5802 5800 5799 5799 5797 5796 5794 5793 5792 5792 5790 5789 5788 5786 5785 5784 5782 5781 5779 5778 5776 5775 5774 5772 5770 5768 5766 5764 5762 5759 5756 5752 5749 5746 5743 5740 5736 5734 5732 5729
5802 5800 5798 5798 5797 5795 5794 5793 5791 5790 5788 5787 5786 5786 5784 5783 5782 5781 5780 5778 5777 5775 5774 5773 5771 5770 5769 5767 5766 5765 5762 5760 5758 5755 5752 5749 5746 5743 5740 5737 5734 5732 5729 5726
5797 5795 5793 5792 5791 5790 5790 5787 5785 5784 5783 5781 5780 5779 5778 5778 5777 5775 5774 5773 5772 5771 5769 5768 5766 5765 5764 5763 5762 5761 5758 5756 5753 5751 5748 5745 5742 5739 5737 5734 5732 5729 5726 5723
5792 5790 5788 5786 5784 5783 5783 5781 5779 5777 5776 5774 5773 5773 5772 5771 5771 5770 5769 5768 5767 5766 5764 5763 5762 5761 5760 5759 5758 5756 5754 5752 5749 5747 5744 5742 5739 5736 5734 5732 5729 5727 5724 5721
5786 5784 5783 5780 5777 5776 5777 5774 5771 5770 5769 5768 5766 5766 5765 5765 5765 5765 5763 5763 5762 5761 5759 5759 5758 5758 5757 5756 5754 5753 5751 5749 5746 5744 5741 5739 5736 5734 5731 5729 5727 5724 5721 5719
5780 5778 5776 5773 5770 5769 5769 5766 5765 5764 5763 5761 5760 5759 5759 5758 5759 5759 5758 5757 5756 5756 5755 5755 5755 5754 5754 5752 5751 5750 5748 5746 5743 5741 5739 5736 5734 5731 5729 5727 5725 5722 5720 5717
5773 5771 5769 5766 5764 5765 5761 5758 5758 5757 5755 5754 5754 5754 5753 5752 5752 5752 5752 5752 5751 5751 5751 5751 5751 5751 5750 5749 5748 5747 5745 5743 5741 5739 5736 5734 5731 5729 5727 5725 5723 5720 5718 5715
5766 5764 5761 5759 5759 5756 5753 5751 5750 5749 5749 5748 5748 5748 5747 5747 5747 5746 5746 5746 5747 5747 5747 5747 5748 5747 5747 5746 5745 5744 5743 5741 5739 5737 5735 5732 5730 5728 5726 5724 5721 5719 5716 5713
5759 5757 5754 5751 5751 5749 5747 5745 5744 5743 5743 5743 5742 5742 5742 5741 5741 5741 5741 5742 5742 5743 5744 5744 5744 5744 5744 5744 5743 5742 5740 5739 5737 5735 5733 5731 5729 5727 5725 5723 5720 5718 5715 5712
5752 5749 5746 5744 5744 5742 5741 5739 5738 5737 5737 5736 5737 5736 5736 5736 5736 5736 5737 5738 5739 5740 5741 5742 5742 5742 5742 5741 5741 5740 5739 5737 5736 5734 5732 5730 5728 5726 5724 5722 5719 5717 5714 5711
5744 5741 5739 5738 5737 5734 5735 5734 5732 5731 5731 5731 5731 5731 5732 5732 5733 5733 5734 5735 5736 5738 5739 5739 5739 5739 5740 5739 5739 5738 5737 5736 5735 5733 5731 5730 5728 5726 5724 5721 5719 5716 5713 5710